Regional Weather Roundup
Issued by NWS

Home | Current Version | Previous Version | Text Only | Print | Product List | Glossary On
Versions: 1 2 3 4 5 6 7 8 9 10 11 12 13 14 15 16 17 18 19 20 21 22 23 24 25 26 27
000
ASUS45 KPSR 301510
RWRAZ

ARIZONA HOURLY REGIONAL WEATHER ROUNDUP
NATIONAL WEATHER SERVICE PHOENIX AZ
800 AM MST SAT APR 30 2016

NOTE: FAIR INDICATES FEW OR NO CLOUDS BELOW 12,000 FEET WITH NO
SIGNIFICANT WEATHER AND/OR OBSTRUCTIONS TO VISIBILITY.

AZZ001>003-036-301600-
NORTHWEST ARIZONA

CITY           SKY/WX    TMP DP  RH WIND       PRES   REMARKS
BULLHEAD CITY  MOSUNNY   64  45  48 N21G32    29.72R
KINGMAN        CLOUDY    59  38  45 S8        29.73R
$$

AZZ004>008-015-016-018-301600-
NORTH CENTRAL ARIZONA

CITY           SKY/WX    TMP DP  RH WIND       PRES   REMARKS
GRAND CANYON   CLOUDY    40  36  86 SE7       29.88R
WILLIAMS       PTSUNNY   45  36  70 S18       29.93R
PRESCOTT       CLOUDY    51  33  50 S9        29.83R
FLAGSTAFF      CLOUDY    39  37  92 CALM      29.89R
PAYSON         CLOUDY    52  37  58 VRB6      29.89S
PAGE           CLOUDY    50  43  77 W5        29.85R
$$

AZZ009>014-017-301600-
NORTHEAST ARIZONA

CITY           SKY/WX    TMP DP  RH WIND       PRES   REMARKS
WINSLOW        CLOUDY    52  36  54 E7        29.86S
SAINT JOHNS    SUNNY     50  38  63 SE3       29.89S
SHOW LOW       MOSUNNY   46  32  57 S10G16    29.91F
$$

AZZ023-301600-
GREATER PHOENIX AREA

CITY           SKY/WX    TMP DP  RH WIND       PRES   REMARKS
PHOENIX        PTSUNNY   68  39  34 SE13      29.74S
BUCKEYE        MOSUNNY   68  37  32 E13       29.75S
GLENDALE       MOSUNNY   70  39  32 E6        29.76S
LUKE AFB       SUNNY     69  39  33 E8        29.73F
DEER VALLEY    MOSUNNY   67  37  33 E13       29.74F
SCOTTSDALE     PTSUNNY   67  37  33 SE7       29.77F
MESA-GATEWAY   MOSUNNY   64  37  36 SE12      29.78S
CHANDLER       SUNNY     66  43  42 NE6       29.76S
$$

AZZ027-028-301600-
SOUTHWEST MARICOPA COUNTY AND PINAL COUNTY

CITY           SKY/WX    TMP DP  RH WIND       PRES   REMARKS
CASA GRANDE    MOSUNNY   66  36  32 SE9       29.79S
GILA BEND      CLOUDY    70  34  26 SE9       29.71F
$$

AZZ503-504-507>509-301600-
SOUTHEAST ARIZONA

CITY           SKY/WX    TMP DP  RH WIND       PRES   REMARKS
TUCSON         SUNNY     63  32  31 E6        29.85S
DAVIS-MONTHAN  SUNNY     63  33  32 SE6       29.84S
NOGALES        SUNNY     60  33  36 S6        29.88S
SIERRA VISTA   SUNNY     58  31  36 NE3       29.91S
DOUGLAS        SUNNY     59  32  36 S8        29.90S
SAFFORD        SUNNY     62  32  32 E8        29.84S
$$

AZZ020-021-025-026-031-301600-
SOUTHWEST ARIZONA

CITY           SKY/WX    TMP DP  RH WIND       PRES   REMARKS
YUMA           SUNNY     67  53  61 NW8       29.72R
$$

CAZ031-033-041-043-047-048-061-301600-
SOUTHERN CALIFORNIA

CITY           SKY/WX    TMP DP  RH WIND       PRES   REMARKS
DOWNTOWN L.A.  MOSUNNY   59  50  72 CALM      29.84R
L.A. AIRPORT   PTSUNNY   58  51  78 VRB3      29.84S
SAN DIEGO      CLOUDY    59  49  69 S13       29.87S
BURBANK        MOSUNNY   57  49  74 CALM      29.83R
ONTARIO        PTSUNNY   53  50  89 W8        29.83R
RIVERSIDE      PTSUNNY   54  51  90 W5        29.83S
PALM SPRINGS   MOSUNNY   65  45  48 NW14G28   29.71R
EL CENTRO NAS  SUNNY     65  42  43 W29G35    29.73S
IMPERIAL       SUNNY     66  43  43 W16G26    29.71R
BLYTHE         MOSUNNY   64  45  49 S7        29.69R
NEEDLES        MOSUNNY   65  47  52 N16       29.70R
$$

NVZ020-UTZ003-301600-
SOUTHERN NEVADA-UTAH

CITY           SKY/WX    TMP DP  RH WIND       PRES   REMARKS
LAS VEGAS      RAIN      49  49 100 NW13G22   29.73S FOG
SALT LAKE CITY MOSUNNY   50  39  66 W5        29.93R
$$

NMZ009-TXZ055-301600-
NEW MEXICO-WEST TEXAS

CITY           SKY/WX    TMP DP  RH WIND       PRES   REMARKS
ALBUQUERQUE    MOSUNNY   49  37  63 SW9       29.90R
EL PASO        MOSUNNY   63  30  28 SW5       29.90R
$$


........................KEY........................
SKY/WX - SKY CONDITION/WEATHER
TMP    - TEMPERATURE IN FAHRENHEIT
DP     - DEW POINT IN FAHRENHEIT
RH     - RELATIVE HUMIDITY IN PERCENT
WIND   - DIRECTION AND SPEED IN MILES PER HOUR (MPH)
VRB    - VARIABLE WIND DIRECTION
PRES   - MEAN SEA LEVEL PRESSURE IN INCHES OF MERCURY
         F - FALLING PRESSURE   R - RISING PRESSURE
         S - STEADY PRESSURE
VSB    - VISIBILITY IN MILES
HX     - HEAT INDEX IN FAHRENHEIT
WCI    - WIND CHILL INDEX IN FAHRENHEIT
TC     - TEMPERATURE IN CELSIUS WHICH IS ALSO KNOWN AS
         TEMPERATURE IN CENTIGRADE
AFB    - AIR FORCE BASE
         LUKE AFB IS LUKE AIR FORCE BASE
         DAVIS-MONTHAN IS DAVIS-MONTHAN AIR FORCE BASE
NAS    - NAVAL AIR STATION
         EL CENTRO NAS IS EL CENTRO NAVAL AIR STATION
N/A    - NOT AVAILABLE





USA.gov is the U.S. government's official web portal to all federal, state and local government web resources and services.